User: anonymous   Login
Location: Seasalter
(51.3333°N, 1.0167°E)
Time: 10:28:30
(UTC+00:00)
Language:

Nadezhda 4 Rocket - Orbit

View from above orbital plane
View from above orbital plane
View from above satellite
View from above satellite

Ground track
Ground track

The orbit data is extracted from the following two-line orbital elements,

1 23180U 94041B   24056.95348439 -.00000002  00000-0 -17202-4 0  9994
2 23180  82.9429 271.6800 0028229 207.2416 268.3626 13.78142088489195
Epoch (UTC): 25 February 2024 22:53:01
Eccentricity: 0.0028229
inclination: 82.9429°
perigee height: 950 km
apogee height: 991 km
right ascension of ascending node: 271.6800°
argument of perigee: 207.2416°
revolutions per day: 13.78142088
mean anomaly at epoch: 268.3626°
orbit number at epoch: 48919

The dashed part of the orbit path shows where the satellite is in the earth's shadow,  

DLR